Madison, SD

4:49 PM CDT on April 30, 2017 (GMT -0500)
Madison Municipal

Weather History for KMDS - March, 2013

Change the Weather History Date:

Wednesday, March 6, 2013

  Actual Average Record
Temperature  
Mean Temperature 18 °F -  
Max Temperature 21 °F 37 °F 66 °F (2017)
Min Temperature 14 °F 15 °F 5 °F (2011)
Degree Days  
Heating Degree Days 48    
Moisture  
Dew Point 17 °F    
Average Humidity 100    
Maximum Humidity 100    
Minimum Humidity 100    
Precipitation  
Precipitation 0.00 in - - ()
Sea Level Pressure  
Sea Level Pressure 30.31 in    
Wind  
Wind Speed 8 mph (ESE)    
Max Wind Speed 16 mph    
Max Gust Speed 23 mph    
Visibility 10 miles    
Events Snow    
Averages and records for this station are not official NWS values.
T = Trace of Precipitation, MM = Missing Value Source: NWS Daily Summary

Daily Weather History Graph

Daily Weather History Graph

Search for Another Location

Airport or City:

Trip Planner

Search our weather history database for the weather conditions in past years. The results will help you decide how hot, cold, wet, or windy it might be!

Date:

Astronomy

Mar. 06, 2013 Rise Set
Actual Time 6:56 AM CST 6:23 PM CST
Civil Twilight 6:27 AM CST 6:52 PM CST
Nautical Twilight 5:53 AM CST 7:25 PM CST
Astronomical Twilight 5:20 AM CST 7:59 PM CST
Moon 3:15 AM CST (3/6) 12:58 PM CST (3/6)
Length of Visible Light 12h 25m
Length of Day
11h 27m
Waning Crescent, 29% of the Moon is Illuminated
Mar 6
Waning Crescent
Mar 11
New
Mar 19
First Quarter
Mar 27
Full
Apr 2
Last Quarter

Hourly Weather History & Observations

Time (CST) Temp. Windchill Dew Point Humidity Pressure Visibility Wind Dir Wind Speed Gust Speed Precip Events Conditions
12:15 AM 15.8 °F 2.7 °F 15.8 °F 100% 30.36 in 10.0 mi NNW 11.5 mph - N/A   Overcast
12:35 AM 15.8 °F 2.7 °F 15.8 °F 100% 30.36 in 10.0 mi North 11.5 mph - N/A Snow Light Snow
12:55 AM 15.8 °F 5.1 °F 15.8 °F 100% 30.37 in 10.0 mi NW 8.1 mph - N/A Snow Light Snow
1:15 AM 15.8 °F 4.2 °F 15.8 °F 100% 30.37 in 10.0 mi NNW 9.2 mph - N/A Snow Light Snow
1:35 AM 15.8 °F 5.1 °F 15.8 °F 100% 30.37 in 10.0 mi NNW 8.1 mph - N/A Snow Light Snow
1:55 AM 15.8 °F 6.1 °F 15.8 °F 100% 30.37 in 10.0 mi NNW 6.9 mph - N/A Snow Light Snow
2:15 AM 15.8 °F 5.1 °F 15.8 °F 100% 30.37 in 10.0 mi NW 8.1 mph - N/A   Overcast
2:35 AM 15.8 °F 6.1 °F 15.8 °F 100% 30.37 in 10.0 mi NNW 6.9 mph - N/A   Overcast
2:55 AM 15.8 °F 5.1 °F 15.8 °F 100% 30.36 in 10.0 mi NNW 8.1 mph - N/A Snow Light Snow
3:15 AM 15.8 °F 8.6 °F 15.8 °F 100% 30.36 in 10.0 mi North 4.6 mph - N/A   Overcast
3:35 AM 15.8 °F 5.1 °F 15.8 °F 100% 30.35 in 10.0 mi NNE 8.1 mph - N/A Snow Light Snow
3:55 AM 14.0 °F 6.5 °F 14.0 °F 100% 30.36 in 10.0 mi North 4.6 mph - N/A   Overcast
4:15 AM 14.0 °F 2.9 °F 14.0 °F 100% 30.36 in 10.0 mi NNE 8.1 mph - N/A   Overcast
4:35 AM 14.0 °F 3.9 °F 14.0 °F 100% 30.35 in 10.0 mi NE 6.9 mph - N/A   Overcast
4:55 AM 14.0 °F 3.9 °F 14.0 °F 100% 30.37 in 10.0 mi North 6.9 mph - N/A Snow Light Snow
5:15 AM 14.0 °F 5.1 °F 14.0 °F 100% 30.36 in 10.0 mi NE 5.8 mph - N/A   Overcast
5:35 AM 14.0 °F 5.1 °F 14.0 °F 100% 30.36 in 10.0 mi North 5.8 mph - N/A   Overcast
5:55 AM 14.0 °F 5.1 °F 14.0 °F 100% 30.36 in 10.0 mi NE 5.8 mph - N/A   Overcast
6:15 AM 14.0 °F - 14.0 °F 100% 30.37 in 10.0 mi Calm Calm - N/A   Overcast
6:35 AM 14.0 °F 8.2 °F 14.0 °F 100% 30.37 in 10.0 mi ENE 3.5 mph - N/A   Overcast
6:55 AM 14.0 °F 3.9 °F 14.0 °F 100% 30.36 in 10.0 mi ENE 6.9 mph - N/A   Overcast
7:15 AM 14.0 °F 6.5 °F 14.0 °F 100% 30.37 in 10.0 mi NE 4.6 mph - N/A   Overcast
7:35 AM 14.0 °F 8.2 °F 14.0 °F 100% 30.37 in 10.0 mi NE 3.5 mph - N/A Snow Light Snow
7:55 AM 14.0 °F - 14.0 °F 100% 30.37 in 10.0 mi Calm Calm - N/A Snow Light Snow
8:15 AM 14.0 °F 6.5 °F 14.0 °F 100% 30.38 in 10.0 mi East 4.6 mph - N/A Snow Light Snow
8:35 AM 14.0 °F - 14.0 °F 100% 30.38 in 10.0 mi Calm Calm - N/A Snow Light Snow
8:55 AM 14.0 °F - 14.0 °F 100% 30.38 in 10.0 mi Calm Calm - N/A Snow Light Snow
9:15 AM 14.0 °F 6.5 °F 14.0 °F 100% 30.37 in 10.0 mi NE 4.6 mph - N/A Snow Light Snow
9:35 AM 14.0 °F - 14.0 °F 100% 30.37 in 10.0 mi Calm Calm - N/A Snow Light Snow
9:55 AM 14.0 °F 8.2 °F 14.0 °F 100% 30.37 in 10.0 mi East 3.5 mph - N/A Snow Light Snow
10:15 AM 15.8 °F - 15.8 °F 100% 30.37 in 10.0 mi Calm Calm - N/A   Overcast
10:35 AM 15.8 °F 10.2 °F 15.8 °F 100% 30.37 in 10.0 mi East 3.5 mph - N/A   Overcast
10:55 AM 15.8 °F 5.1 °F 15.8 °F 100% 30.35 in 10.0 mi SE 8.1 mph - N/A Snow Light Snow
11:15 AM 17.6 °F 7.3 °F 17.6 °F 100% 30.35 in 10.0 mi ESE 8.1 mph - N/A   Overcast
11:35 AM 17.6 °F 9.3 °F 17.6 °F 100% 30.35 in 10.0 mi ESE 5.8 mph - N/A   Overcast
11:55 AM 17.6 °F 8.2 °F 17.6 °F 100% 30.35 in 10.0 mi SE 6.9 mph - N/A   Overcast
12:15 PM 17.6 °F 6.4 °F 17.6 °F 100% 30.34 in 10.0 mi South 9.2 mph - N/A   Mostly Cloudy
12:35 PM 17.6 °F 8.2 °F 17.6 °F 100% 30.34 in 10.0 mi South 6.9 mph - N/A   Mostly Cloudy
12:55 PM 17.6 °F 7.3 °F 17.6 °F 100% 30.33 in 10.0 mi South 8.1 mph - N/A   Overcast
1:15 PM 17.6 °F 6.4 °F 17.6 °F 100% 30.32 in 10.0 mi South 9.2 mph - N/A   Overcast
1:35 PM 19.4 °F 7.9 °F 19.4 °F 100% 30.30 in 10.0 mi SSE 10.4 mph - N/A   Mostly Cloudy
1:55 PM 19.4 °F 9.5 °F 19.4 °F 100% 30.30 in 10.0 mi SE 8.1 mph - N/A   Overcast
2:15 PM 19.4 °F 8.6 °F 19.4 °F 100% 30.28 in 10.0 mi SSE 9.2 mph - N/A   Mostly Cloudy
2:35 PM 19.4 °F 7.9 °F 19.4 °F 100% 30.28 in 10.0 mi SSE 10.4 mph - N/A   Overcast
2:55 PM 19.4 °F 8.6 °F 19.4 °F 100% 30.28 in 10.0 mi ESE 9.2 mph - N/A   Overcast
3:15 PM 21.2 °F 8.9 °F 21.2 °F 100% 30.27 in 10.0 mi ESE 12.7 mph - N/A   Overcast
3:35 PM 19.4 °F 7.9 °F 19.4 °F 100% 30.26 in 10.0 mi ESE 10.4 mph - N/A   Overcast
3:55 PM 19.4 °F 6.6 °F 19.4 °F 100% 30.25 in 10.0 mi ESE 12.7 mph - N/A   Mostly Cloudy
4:15 PM 19.4 °F 7.9 °F 19.4 °F 100% 30.25 in 10.0 mi ESE 10.4 mph - N/A   Scattered Clouds
4:35 PM 19.4 °F 6.0 °F 19.4 °F 100% 30.25 in 10.0 mi SE 13.8 mph - N/A   Mostly Cloudy
4:55 PM 19.4 °F 6.6 °F 19.4 °F 100% 30.24 in 10.0 mi SE 12.7 mph - N/A   Mostly Cloudy
5:15 PM 19.4 °F 5.5 °F 19.4 °F 100% 30.23 in 10.0 mi SE 15.0 mph - N/A   Mostly Cloudy
5:35 PM 19.4 °F 6.0 °F 19.4 °F 100% 30.22 in 10.0 mi SE 13.8 mph - N/A   Scattered Clouds
5:55 PM 19.4 °F 6.0 °F 19.4 °F 100% 30.21 in 10.0 mi SE 13.8 mph - N/A   Overcast
6:15 PM 19.4 °F 6.0 °F 19.4 °F 100% 30.22 in 10.0 mi SE 13.8 mph - N/A   Overcast
6:35 PM 19.4 °F 5.0 °F 19.4 °F 100% 30.22 in 10.0 mi SE 16.1 mph - N/A   Overcast
6:55 PM 19.4 °F 6.0 °F 19.4 °F 100% 30.22 in 10.0 mi SE 13.8 mph 23.0 mph N/A   Overcast
7:15 PM 19.4 °F 6.0 °F 19.4 °F 100% 30.22 in 10.0 mi SE 13.8 mph - N/A   Mostly Cloudy
7:35 PM 19.4 °F 7.2 °F 19.4 °F 100% 30.21 in 10.0 mi SE 11.5 mph - N/A   Scattered Clouds
7:55 PM 19.4 °F 7.2 °F 19.4 °F 100% 30.20 in 10.0 mi SE 11.5 mph - N/A   Clear
8:15 PM 17.6 °F 4.3 °F 17.6 °F 100% 30.21 in 10.0 mi SE 12.7 mph - N/A   Scattered Clouds
8:35 PM 19.4 °F 7.9 °F 19.4 °F 100% 30.21 in 10.0 mi SE 10.4 mph - N/A   Clear
8:55 PM 17.6 °F 5.7 °F 17.6 °F 100% 30.21 in 10.0 mi SE 10.4 mph - N/A   Clear
9:15 PM 19.4 °F 7.2 °F 19.4 °F 100% 30.23 in 10.0 mi SE 11.5 mph - N/A   Clear
9:35 PM 17.6 °F 5.7 °F 17.6 °F 100% 30.23 in 10.0 mi SE 10.4 mph - N/A   Clear
9:55 PM 17.6 °F 5.7 °F 17.6 °F 100% 30.23 in 10.0 mi SE 10.4 mph - N/A   Clear
10:15 PM 17.6 °F 5.7 °F 17.6 °F 100% 30.23 in 10.0 mi SE 10.4 mph - N/A   Partly Cloudy
10:35 PM 17.6 °F 5.0 °F 17.6 °F 100% 30.23 in 10.0 mi SE 11.5 mph - N/A   Mostly Cloudy
10:55 PM 17.6 °F 4.3 °F 17.6 °F 100% 30.22 in 10.0 mi ESE 12.7 mph - N/A   Overcast
11:15 PM 17.6 °F 4.3 °F 17.6 °F 100% 30.21 in 10.0 mi ESE 12.7 mph - N/A   Overcast
11:35 PM 17.6 °F 5.0 °F 17.6 °F 100% 30.21 in 10.0 mi SE 11.5 mph - N/A   Overcast
11:55 PM 17.6 °F 3.2 °F 17.6 °F 100% 30.21 in 10.0 mi SE 15.0 mph 18.4 mph N/A   Overcast